Regional Weather Roundup
Issued by NWS

Home | Current Version | Previous Version | Graphics & Text | Print | Product List | Glossary On
Versions: 1 2 3 4 5 6 7 8 9 10 11 12 13 14 15 16 17 18 19 20 21 22 23 24 25 26 27 28 29 30 31 32 33 34 35 36 37 38 39 40 41 42 43 44 45 46 47 48 49 50
000
ASUS45 KABQ 100910
RWRNM
NEW MEXICO REGIONAL WEATHER ROUNDUP
NATIONAL WEATHER SERVICE ALBUQUERQUE NM
200 AM MST SAT DEC 10 2016

NOTE: "FAIR" MEANS FEW OR NO CLOUDS BELOW 12,000 FEET AGL WITH NO
       SIGNIFICANT WEATHER OR OBSTRUCTIONS TO VISION.

      THIS PRODUCT IS RELEASED AS TWO VERSIONS.  ONE VERSION NEAR
      THE TOP OF THE HOUR CONTAINING PRELIMINARY DATA FROM ALBUQUERQUE
      AND OTHER STATIONS.  A FINAL VERSION WITH ADDITIONAL DATA IS
      ISSUED ABOUT 10 MINUTES AFTER THE HOUR.

NMZ501-503-504-510>518-101000-
NORTHWEST PLATEAU/NORTHCENTRAL MOUNTAINS

CITY           SKY/WX    TMP DP  RH WIND       PRES   REMARKS
FARMINGTON     FAIR      25  20  81 NE8       30.24F WCI  16
LOS ALAMOS     FAIR      35  23  62 CALM      30.28S
SANTA FE       FAIR      21  18  88 N6        30.26F WCI  13
TAOS           FAIR      21  10  63 CALM      30.27S
ANGEL FIRE     FAIR      29  22  76 SE12      30.25S WCI  19

$$
NMZ402-403-502-505>509-101000-
WESTCENTRAL MOUNTAINS/SOUTHWEST MOUNTAINS

CITY           SKY/WX    TMP DP  RH WIND       PRES   REMARKS
GALLUP         FAIR      21  18  88 CALM      30.28R
GRANTS         FAIR      21  19  93 NW6       30.30R WCI  13
SILVER CITY    FAIR      29  27  92 N3        30.28S

$$
NMZ407-409-411-412-101000-
SOUTHERN DESERTS

CITY           SKY/WX    TMP DP  RH WIND       PRES   REMARKS
DEMING         FAIR      32  28  85 N5        30.29S WCI  27
LAS CRUCES     FAIR      30  27  87 NW3       30.29F
HOLLOMAN AFB   FAIR      26  19  72 N3        30.34S
T OR C         FAIR      31  24  75 W6        30.28S WCI  25

$$
NMZ519>523-101000-
CENTRAL VALLEYS/CENTRAL HIGHLANDS

CITY           SKY/WX    TMP DP  RH WIND       PRES   REMARKS
ALBUQUERQUE    FAIR      31  24  75 NE3       30.28S
DOUBLE EAGLE   FAIR      22  18  85 CALM      30.28S
MORIARTY ARPT  FAIR      14  10  85 CALM      30.29R
CLINES CORNERS FAIR      24  20  84 NW12      30.26F WCI  13
BELEN          FAIR      25  21  85 CALM      30.29R
SOCORRO        FAIR      29  26  86 S5        30.28S WCI  24

$$
NMZ524>526-539-540-101000-
SOUTHCENTRAL MOUNTAINS

CITY           SKY/WX    TMP DP  RH WIND       PRES   REMARKS
RUIDOSO        FAIR      36  23  60 CALM      30.29S

$$
NMZ527>531-101000-
NORTHEAST HIGHLANDS/NORTHEAST PLAINS

CITY           SKY/WX    TMP DP  RH WIND       PRES   REMARKS
LAS VEGAS      FAIR      32  18  56 S10       30.19S WCI  24
RATON          FAIR      20  14  77 E7        30.14S WCI  11
CLAYTON        FAIR      31  26  82 S5        30.09F WCI  26

$$
NMZ532>537-101000-
EASTCENTRAL PLAINS

CITY           SKY/WX    TMP DP  RH WIND       PRES   REMARKS
TUCUMCARI      FAIR      27  23  85 W7        30.13F WCI  19
CANNON AFB     FAIR      24  24 100 SW5       30.18F WCI  18
CLOVIS AIRPORT FAIR      28  25  86 SW12      30.18S WCI  18

$$
NMZ028-029-538-101000-
SOUTHEAST PLAINS

CITY           SKY/WX    TMP DP  RH WIND       PRES   REMARKS
ROSWELL        MOCLDY    25  23  92 NW3       30.23S
ARTESIA        CLOUDY    28  28 100 CALM      30.24S
CARLSBAD       NOT AVBL


$$




USA.gov is the U.S. government's official web portal to all federal, state and local government web resources and services.